Tracking 28799 objects as of 18-Apr-2024
HD Live streaming from Space Station
objects crossing your sky now

DMSP 5D-2 F13 DEB

Track DMSP 5D-2 F13 DEB now!
10-day predictions


NORAD ID: 40399
Int'l Code: 1995-015L
Perigee: 809.8 km
Apogee: 825.8 km
Inclination: 98.8 °
Period: 101.1 minutes
Semi major axis: 7188 km
RCS: Unknown
Launch date: March 24, 1995
Source: United States (US)
Launch site: AIR FORCE WESTERN TEST RANGE (AFWTR)

Note: This is SATELLITE DEBRIS
Your satellite tracking list
Your tracking list is empty




NASA's NSSDC Master Catalog

Two Line Element Set (TLE):
1 40399U 95015L   24108.59683399  .00008111  00000-0  35229-2 0  9996
2 40399  98.7578 126.3598 0011104 107.3629 252.8765 14.24346792473506
Source of the keplerian elements: AFSPC